Location: Luz Observatory
(34.5000°N, 117.2833°W)
Time: 10:40:33
(UTC-07:00)

Cosmos 1484 Rocket - Visible Passes

Search period start: 22 August 2014 00:00
Search period end: 01 September 2014 00:00
Orbit: 514 x 575 km, 97.4° (Epoch: 21 August)

Date Brightness Start Highest point End Pass type
(mag) Time Alt. Az. Time Alt. Az. Time Alt. Az.
22 Aug 3.4 19:49:34 10° SE 19:53:02 35° ENE 19:56:29 10° N visible
22 Aug 5.8 21:26:26 10° WSW 21:27:47 12° W 21:29:08 10° WNW visible
23 Aug 5.6 21:19:55 10° SW 21:21:55 14° W 21:23:54 10° WNW visible
24 Aug 5.5 21:13:37 10° SW 21:16:02 16° W 21:18:28 10° NW visible
25 Aug 5.3 21:07:24 10° SW 21:10:10 19° W 21:12:55 10° NW visible
26 Aug 5.0 21:01:17 10° SSW 21:04:17 23° W 21:07:18 10° NW visible
27 Aug 4.7 20:55:12 10° SSW 20:58:25 27° W 21:01:39 10° NW visible
28 Aug 4.4 20:49:10 10° SSW 20:52:33 32° W 20:55:56 10° NNW visible
29 Aug 4.1 20:43:10 10° SSW 20:46:41 38° W 20:50:12 10° NNW visible
30 Aug 3.7 20:37:12 10° S 20:40:49 46° W 20:44:26 10° NNW visible
31 Aug 3.3 20:31:16 10° S 20:34:57 56° W 20:38:38 10° NNW visible
